Location: Unspecified
(30.8073°N, 0.0000°E)
Time: 17:37:34
(UTC+00:00)

CAS-4A - Visible Passes

Search period start: 16 October 2019 00:00
Search period end: 26 October 2019 00:00
Orbit: 528 x 546 km, 43.0° (Epoch: 16 October)

Date Brightness Start Highest point End Pass type
(mag) Time Alt. Az. Time Alt. Az. Time Alt. Az.
16 Oct ? 04:46:40 17° SSW 04:46:40 17° SSW 04:48:45 10° S visible
16 Oct ? 18:31:49 10° SSE 18:32:20 11° SE 18:32:20 11° SE visible
17 Oct ? 18:20:12 10° S 18:22:35 15° SE 18:23:20 14° ESE visible
17 Oct ? 19:58:16 10° WSW 19:58:44 13° WSW 19:58:44 13° WSW visible
18 Oct ? 18:09:14 10° S 18:12:17 20° SE 18:14:13 15° ESE visible
18 Oct ? 19:48:08 10° WSW 19:49:37 21° WSW 19:49:37 21° WSW visible
19 Oct ? 17:58:32 10° SSW 18:02:00 27° SE 18:05:01 13° E visible
19 Oct ? 19:38:05 10° WSW 19:40:24 29° W 19:40:24 29° W visible
20 Oct ? 17:47:59 10° SSW 17:51:44 37° SE 17:55:32 10° ENE visible
20 Oct ? 19:28:04 10° W 19:31:04 33° NW 19:31:04 33° NW visible
21 Oct ? 19:18:07 10° W 19:21:38 30° NNW 19:21:38 30° NNW visible
22 Oct ? 19:08:13 10° WNW 19:11:40 26° NNW 19:12:06 25° N visible
23 Oct ? 18:58:20 10° WNW 19:01:35 22° NNW 19:02:30 21° N visible
24 Oct ? 18:48:29 10° WNW 18:51:31 20° NNW 18:52:51 17° N visible
25 Oct ? 18:38:39 10° NW 18:41:28 18° NNW 18:43:08 14° NNE visible
